Location: Colonia Mina de C?rbuni
(46.1667°N, 22.7167°E)
Time: 10:02:42
(UTC+00:00)

BlueWalker 3 - Pass Details

Date: 03 March 2024
Orbit: 485 x 496 km, 53.2° (Epoch: 12 April)

Event Time Altitude Azimuth Distance (km) Brightness Sun altitude
Rises 18:53:57 0° 292° (WNW) 2,556 6.8 -27.3°
Reaches altitude 10° 18:56:31 10° 276° (W) 1,670 5.5 -27.7°
Enters shadow 18:58:37 19° 243° (WSW) 1,206 4.2 -28.0°
